ONEWEB-0064, 45433

Orbit data source: Space-Track

ONEWEB-0064, 45433 is a payload satellite owned by One Web (UK) in LEO that was launched on Sat, 21 Mar 2020 UTC via a SOYUZ-2-1B launch vehicle from the Tyuratam Missile And Space Complex (TTMTR). Payload-class satellites include a variety of spacecraft equipped with specific instruments for various scientific and technological missions. These include communications satellites like Starlink; space stations such as the ISS; scientific satellites like the Hubble; Earth observation satellites from companies like Planet Labs, Umbra, and HawkEye 360; GPS; miniature CubeSats for education and research; and military/defense satellites.

Loading next visibility...
Identifier
45433, 2020-020K
Orbit
LEO
Country
Flag of UKUK
Related business
Manufacturer
One Web
Mission
Operational Commercial Communications
Bus & Motor
ARROW, Unknown motor
Mass
148 kg wet, ~140 kg dry
Launch date (UTC)
2020-03-21 (6 years ago)
Launch vehicle
SOYUZ-2-1B
Launch site
Tyuratam Missile And Space Complex (TTMTR)
Object type
Payload
Rocket body
Debris
Shape & HBR
Trap Box + 2 Pan, 6.7 m
Radar Cross Section
3.464 m², Large (>1 m²)

Expand to show TLE details & history
Last TLE update: 5 hours ago

TLE from 5 hours ago
0 ONEWEB-0064
1 45433U 20020K   26037.56562141  .00000110  00000-0  27463-3 0  9998
2 45433  87.8815  47.0606 0001865  95.8328 264.3013 13.11414040285560
Epoch: 2026-02-06T13:34Z
TLE epoch observation values (Epoch: 2026-02-06T13:34:29.689Z)
Latitude
Longitude
66.73523°
Altitude
1,220.724 km
Speed
7.244 km/s
True Right ascension
03h 08m 14s
True Declination
0° 00' 00"
Sunlit
Object was in daylight at epoch
Visualization orbit readout
Latitude
Unknown
Longitude
Unknown
Altitude
Unknown
Speed
Unknown
Apparent Right ascension
Unknown
Apparent Declination
Unknown
Sunlit
N/A
Visualization observer readout
Local Sidereal Time
21:04:18
Azimuth
Unknown
Elevation
Unknown
Doppler factor
Unknown
Orbital elements
Apogee altitude
1,216.228 km
Perigee altitude
1,213.396 km
Semi-major axis
7,592.949 km
Eccentricity
0.00019
Inclination
87.8815°
RAAN
47.0606°
Arg. of periapsis
95.8328°
True anomaly
264.28003°
Mean anomaly
264.3013°
Eccentric anomaly
264.29067°
Mean motion
3.2804 °/min
Orbital period
109.74 mins
BSTAR
0.00027463
Loading maneuver chart data...
Computing Atmospheric mass density...
Loading historical data...
Loading historical data...
Loading historical data...
Loading historical data...
Loading historical data...
Loading historical data...
Loading historical data...

Documentation

Showing up to 5 results
|